Starlink 4071

operational
NORAD ID: 52671 Int'l Des: 2022-053 Owner: SPXS Country: US Constellation: starlink
LEOCIRCULAR

Über Starlink 4071

Beschreibung wird geladen...

Live-Position

3D-Globus wird geladen...

Nächste Überflüge

Höhenverlauf

Altitude vs Time

uPlot chart will show altitude changes over time

Zweizeiliger Elementsatz

1 52671U 22053R 25310.50308248 .00002005 00000-0 14395-3 0 9996
2 52671 53.2179 347.1273 0001434 89.6838 270.4319 15.08854086192442
Epoch: 6. Nov. 2025 • Age: 18 hours

Aktueller Status

Höhe 543.8 km
Geschwindigkeit 7.60 km/s
Subsatellitenpunkt 46.39°N, 99.25°W
Startdatum 18. Mai 2022
Alter 3.4 years
Typ internet

Technische Details

Klassifizierung Payload
Masse 297.00 kg
Trockenmasse 275.00 kg
Gesamtmasse 297.00 kg
Länge 0.20 m
Durchmesser 2.80 m
Spannweite 9.00 m
Form Box + pan
Hersteller SPXS
Bus-Typ Starlink
Phasenstatus In Orbit
Besitzer/Staat SPXS/US

Große Konstellationen

Loading constellations...